Terminal Aerodrome Forecast
Issued by NWS Quad Cities IA IL

Home | Current Version | Previous Version | Text Only | Print | Product List | Glossary On
Versions: 1 2 3 4 5 6 7 8 9 10 11 12 13 14 15
000
FTUS43 KDVN 302300
TAFMLI
TAF
KMLI 302320Z 0100/0124 10008KT P6SM FEW250
     FM011400 13008KT P6SM VCSH SCT040 OVC070 PROB30 0116/0122 3SM
      -SHRA BKN035 OVC050
     FM012200 14007KT 3SM -SHRA BKN035 OVC050=

USA.gov is the U.S. government's official web portal to all federal, state and local government web resources and services.